Regional Weather Roundup
Issued by NWS

Home | Current Version | Previous Version | Graphics & Text | Print | Product List | Glossary On
Versions: 1 2 3 4 5 6 7 8 9 10 11 12 13 14 15 16 17 18 19 20 21 22 23 24 25 26 27 28
000
ASUS45 KCYS 210310
RWRWY

WYOMING REGIONAL WEATHER ROUNDUP
NATIONAL WEATHER SERVICE CHEYENNE WY
900 PM MDT WED SEP 20 2017

NOTE:  "FAIR" INDICATES FEW OR NO CLOUDS BELOW 12,000 FEET
WITH NO SIGNIFICANT WEATHER AND/OR OBSTRUCTIONS TO VISIBILITY.

WYZ001-210400-
YELLOWSTONE NATIONAL PARK

CITY           SKY/WX    TMP DP  RH WIND       PRES   REMARKS
LK YELLOWSTONE   N/A     35  35 100 VRB3      29.85R
W YELLOWSTONE  NOT AVBL

$$
WYZ002>013-054>058-071-098>099-210400-
NORTHERN WYOMING

CITY           SKY/WX    TMP DP  RH WIND       PRES   REMARKS
JACKSON        CLOUDY    47  35  63 SW7       29.82R
CODY           FAIR      54  31  41 SW14      29.74R
GREYBULL       FAIR      59  33  37 E5        29.69R
WORLAND        FAIR      58  33  39 S10       29.71S
SHERIDAN       FAIR      56  30  37 S8        29.69R
BUFFALO        FAIR      52  25  35 SE9       29.77R
GILLETTE       FAIR      56  35  45 S6        29.75S
HULETT         FAIR      59  30  33 S9        29.78S
NEWCASTLE      FAIR      59  30  33 S13       29.81R

$$
WYZ014>020-022>026-101>103-210400-
CENTRAL WYOMING

CITY           SKY/WX    TMP DP  RH WIND       PRES   REMARKS
BIG PINEY      CLOUDY    49  33  54 NW10      29.83F
PINEDALE       CLOUDY    45  34  65 SE3       29.85R
DUBOIS         CLOUDY    45  28  53 W6        29.82S
LANDER           N/A    N/A N/A N/A MISG      29.75F
RIVERTON       CLOUDY    56  27  32 NE9       29.77F
CASPER         FAIR      54  33  45 SE5       29.82R
DOUGLAS        MOCLDY    58  33  39 N6        29.82R

$$
WYZ021-027>030-104>119-210400-
SOUTHERN WYOMING

CITY           SKY/WX    TMP DP  RH WIND       PRES   REMARKS
EVANSTON       LGT RAIN  56  36  47 CALM      29.77F
KEMMERER         N/A     50  32  50 N6        29.81F
FORT BRIDGER   CLOUDY    56  35  44 E10       29.82F
ROCK SPRINGS   FAIR      53  31  42 E6        29.82F
DIXON          FAIR      51  40  66 E5        29.89F
RAWLINS        FAIR      50  35  56 CALM      29.86F
SARATOGA       FAIR      50  37  62 SE10      29.90F
LARAMIE        FAIR      51  29  42 SE10      29.93S
CHEYENNE       FAIR      58  29  33 SE10      29.91R
TORRINGTON     FAIR      61  33  35 E15       29.80R
PINE BLUFFS    FAIR      59  28  31 SE12      29.89R

$$




USA.gov is the U.S. government's official web portal to all federal, state and local government web resources and services.